Regional Weather Roundup
Issued by NWS

Home | Current Version | Previous Version | Text Only | Print | Product List | Glossary Off
Versions: 1 2 3 4 5 6 7 8 9 10 11 12 13 14 15 16 17 18 19 20 21 22 23 24 25 26 27 28 29 30 31 32 33 34 35 36 37 38 39 40 41 42 43 44 45 46 47 48 49 50

000
ASUS43 KIND 011309
RWRIN

WEATHER ROUNDUP FOR INDIANA
NATIONAL WEATHER SERVICE INDIANAPOLIS IN
900 AM EDT MON SEP 01 2014

NOTE: "FAIR" INDICATES FEW OR NO CLOUDS BELOW 12,000 FEET WITH NO
SIGNIFICANT WEATHER AND/OR OBSTRUCTIONS TO VISIBILITY.

* - STATION DOES NOT REPORT WEATHER SUCH AS PRECIPITATION OR FOG.

+ - STATION NOT QUALITY CONTROLLED BY THE NATIONAL WEATHER SERVICE.
    USE DATA WITH CAUTION...ESPECIALLY DEWPOINT AND RELATIVE
    HUMIDITY OBSERVATIONS.

INZ001>003-010>013-019-020-011400-
NORTHWEST INDIANA

CITY           SKY/WX    TMP DP  RH WIND       PRES   REMARKS
GARY /AIRPORT/ CLOUDY    75  72  88 S10       29.79F
KNOX *+        CLOUDY    73  69  88 SW13      29.84F
LA PORTE +     CLOUDY    72  72 100 SW10G17   29.85S FOG
MICHIGAN CITY+ CLOUDY    73  70  88 S12G17    29.82F
MONTICELLO +   CLOUDY    73  71  94 S13G18    29.87F
RENSSELAER +   CLOUDY    73  72  94 S9        29.85F
VALPARAISO     CLOUDY    73  70  90 S14       29.83F

$$

LMZ046-743>745-011400-
SOUTHERN LAKE MICHIGAN

STATION/POSITION TIME  TEMP WIND        PRES
                       AIR  DIR/SP/G
                 (UTC) (F)  (DEG/KT/KT) (MB)
MICHIGAN CITY    1300   73  170/ 14/ 18   N/A

$$

INZ004-005-014>016-021>024-011400-
NORTH CENTRAL INDIANA

CITY           SKY/WX    TMP DP  RH WIND       PRES   REMARKS
ELKHART        CLOUDY    73  72  94 S9G17     29.86  FOG
GOSHEN         CLOUDY    75  70  84 S13       29.87S HAZE
LOGANSPORT +   CLOUDY    72  70  94 S14       29.90F
PERU/GRISSOM   MOSUNNY   74  74 100 S15G23    29.90S
ROCHESTER +    CLOUDY    75  72  88 S10G16    29.88F FOG
SOUTH BEND     CLOUDY    74  70  87 SW13      29.85S
WARSAW +       CLOUDY    72  70  94 S7        29.88F FOG

$$

INZ006>009-017-018-025>027-011400-
NORTHEAST INDIANA

CITY           SKY/WX    TMP DP  RH WIND       PRES   REMARKS
ANGOLA *+      CLOUDY    72  63  73 SW7       29.91R
AUBURN +       CLOUDY    72  68  88 S6        29.92S FOG
FORT WAYNE     CLOUDY    73  70  90 S13       29.92F FOG
HUNTINGTON +   CLOUDY    73  72  96 SW7       29.92S FOG

$$

INZ028-029-035-036-043>045-051>053-011400-
WEST CENTRAL INDIANA

CITY           SKY/WX    TMP DP  RH WIND       PRES   REMARKS
GREENCASTLE +  CLOUDY    73  70  88 S6        29.94F
LAFAYETTE      CLOUDY    73  71  93 S10       29.88F
TERRE HAUTE    CLOUDY    75  71  87 SW14      29.93S

$$

INZ030>032-037>040-046>048-054>057-064-065-011400-
CENTRAL INDIANA

CITY           SKY/WX    TMP DP  RH WIND       PRES   REMARKS
CP ATTERBURY + CLOUDY    75  70  83 SW12      29.97F
COLUMBUS       CLOUDY    75  73  94 MISG      29.98S
FRANKFORT +    PTSUNNY   74  74 100 S8        29.92F
GREENWOOD *+   CLOUDY    75  75 100 S10       29.97S
INDIANAPOLIS   PTSUNNY   74  71  91 S14       29.93F
-EAGLE CREEK   PTSUNNY   75  70  84 SW10G21   29.93F
KOKOMO *+      CLOUDY    73  70  88 S16       29.91F
MARION +       CLOUDY    73  71  92 S12G18    29.93F FOG
MT COMFORT *+  PTSUNNY   73 N/A N/A S8        29.96F
SHELBYVILLE    CLOUDY    76  72  87 S10       29.96F
ZIONSVILLE +   CLOUDY    75  70  86 SW12      29.94F

$$

INZ033-034-041-042-049-050-058-059-011400-
EAST CENTRAL INDIANA

CITY           SKY/WX    TMP DP  RH WIND       PRES   REMARKS
MUNCIE         CLOUDY    74  71  91 SW8       29.95F FOG

$$

INZ060-061-067>069-081>083-085>088-011400-
SOUTHWEST INDIANA

CITY           SKY/WX    TMP DP  RH WIND       PRES   REMARKS
EVANSVILLE     RAIN      75  72  90 SW20G28   29.99R FOG
WASHINGTON +   CLOUDY    76  74  93 S10G16    29.94F

$$

INZ062-063-066-070>080-084-089>092-011400-
SOUTH CENTRAL AND SOUTHEAST INDIANA

CITY           SKY/WX    TMP DP  RH WIND       PRES   REMARKS
BLOOMINGTON    CLOUDY    75  71  87 SW13G20   29.97F

$$




USA.gov is the U.S. government's official web portal to all federal, state and local government web resources and services.